West Bend, WI

11:42 AM CDT on July 23, 2016 (GMT -0500)
West Bend Municipal

Weather History for KETB - April, 2013

Change the Weather History Date:

Tuesday, April 30, 2013

  Actual Average Record
Temperature  
Mean Temperature 68 °F -  
Max Temperature 86 °F 60 °F 86 °F (2013)
Min Temperature 51 °F 39 °F 25 °F (1956)
Cooling Degree Days 4    
Growing Degree Days 18 (Base 50)    
Moisture  
Dew Point 49 °F    
Average Humidity 53    
Maximum Humidity 82    
Minimum Humidity 20    
Precipitation  
Precipitation 0.00 in - - ()
Sea Level Pressure  
Sea Level Pressure 29.76 in    
Wind  
Wind Speed 9 mph (South)    
Max Wind Speed 23 mph    
Max Gust Speed 39 mph    
Visibility 10 miles    
Events      
Averages and records for this station are not official NWS values.
T = Trace of Precipitation, MM = Missing Value Source: NWS Daily Summary

Daily Weather History Graph

Daily Weather History Graph

Search for Another Location

Airport or City:

Trip Planner

Search our weather history database for the weather conditions in past years. The results will help you decide how hot, cold, wet, or windy it might be!

Date:

Astronomy

Apr. 30, 2013 Rise Set
Actual Time 5:46 AM CDT 7:53 PM CDT
Civil Twilight 5:15 AM CDT 8:24 PM CDT
Nautical Twilight 4:36 AM CDT 9:03 PM CDT
Astronomical Twilight 3:54 AM CDT 9:46 PM CDT
Moon 12:18 AM CDT (4/30) 10:13 AM CDT (4/30)
Length of Visible Light 15h 09m
Length of Day
14h 07m
Waning Gibbous, 70% of the Moon is Illuminated
Apr 30
Waning Gibbous
May 2
Last Quarter
May 9
New
May 17
First Quarter
May 24
Full

Hourly Weather History & Observations

Time (CDT) Temp. Dew Point Humidity Pressure Visibility Wind Dir Wind Speed Gust Speed Precip Events Conditions
12:15 AM 59.0 °F 48.2 °F 67% 29.76 in 10.0 mi SE 5.8 mph - N/A   Clear
12:35 AM 59.0 °F 48.2 °F 67% 29.76 in 10.0 mi SE 5.8 mph - N/A   Clear
12:55 AM 57.2 °F 46.4 °F 67% 29.75 in 10.0 mi SE 5.8 mph - N/A   Clear
1:15 AM 55.4 °F 46.4 °F 72% 29.75 in 10.0 mi SE 5.8 mph - N/A   Clear
1:35 AM 55.4 °F 46.4 °F 72% 29.74 in 10.0 mi SE 5.8 mph - N/A   Clear
1:55 AM 53.6 °F 46.4 °F 77% 29.73 in 10.0 mi SE 6.9 mph - N/A   Clear
2:15 AM 53.6 °F 46.4 °F 77% 29.72 in 10.0 mi SE 5.8 mph - N/A   Clear
2:35 AM 53.6 °F 46.4 °F 77% 29.72 in 10.0 mi SE 6.9 mph - N/A   Clear
2:55 AM 51.8 °F 46.4 °F 82% 29.72 in 10.0 mi SSE 5.8 mph - N/A   Clear
3:15 AM 51.8 °F 46.4 °F 82% 29.73 in 10.0 mi SSE 4.6 mph - N/A   Clear
3:35 AM 51.8 °F 46.4 °F 82% 29.72 in 10.0 mi SSE 3.5 mph - N/A   Clear
3:55 AM 51.8 °F 46.4 °F 82% 29.72 in 10.0 mi SSE 4.6 mph - N/A   Clear
4:15 AM 53.6 °F 46.4 °F 77% 29.71 in 10.0 mi Calm Calm - N/A   Clear
4:35 AM 51.8 °F 46.4 °F 82% 29.72 in 10.0 mi South 3.5 mph - N/A   Clear
4:55 AM 53.6 °F 46.4 °F 77% 29.72 in 10.0 mi South 3.5 mph - N/A   Scattered Clouds
5:15 AM 53.6 °F 48.2 °F 82% 29.75 in 10.0 mi NNW 12.7 mph 18.4 mph N/A   Mostly Cloudy
5:35 AM 57.2 °F 51.8 °F 82% 29.75 in 10.0 mi Calm Calm - N/A   Scattered Clouds
5:55 AM 55.4 °F 50.0 °F 82% 29.76 in 10.0 mi SW 3.5 mph - N/A   Clear
6:15 AM 60.8 °F 53.6 °F 77% 29.76 in 10.0 mi SSW 10.4 mph - N/A   Scattered Clouds
6:35 AM 60.8 °F 53.6 °F 77% 29.76 in 10.0 mi SSW 9.2 mph - N/A   Clear
6:55 AM 60.8 °F 53.6 °F 77% 29.75 in 10.0 mi SSW 12.7 mph - N/A   Scattered Clouds
7:15 AM 60.8 °F 53.6 °F 77% 29.75 in 10.0 mi SW 12.7 mph 21.9 mph N/A   Scattered Clouds
7:35 AM 60.8 °F 53.6 °F 77% 29.72 in 10.0 mi SSW 4.6 mph - N/A   Mostly Cloudy
7:55 AM 60.8 °F 53.6 °F 77% 29.73 in 10.0 mi South 9.2 mph - N/A   Scattered Clouds
8:15 AM 60.8 °F 53.6 °F 77% 29.73 in 10.0 mi South 11.5 mph 17.3 mph N/A   Clear
8:35 AM 60.8 °F 53.6 °F 77% 29.73 in 10.0 mi South 10.4 mph 16.1 mph N/A   Clear
8:55 AM 60.8 °F 53.6 °F 77% 29.74 in 10.0 mi South 12.7 mph 18.4 mph N/A   Clear
9:15 AM 62.6 °F 53.6 °F 72% 29.73 in 10.0 mi South 9.2 mph 16.1 mph N/A   Clear
9:35 AM 62.6 °F 55.4 °F 77% 29.73 in 10.0 mi South 9.2 mph 17.3 mph N/A   Clear
9:55 AM 64.4 °F 55.4 °F 73% 29.73 in 10.0 mi South 12.7 mph 23.0 mph N/A   Clear
10:15 AM 68.0 °F 55.4 °F 64% 29.73 in 10.0 mi South 11.5 mph 16.1 mph N/A   Clear
10:35 AM 69.8 °F 55.4 °F 60% 29.73 in 10.0 mi South 11.5 mph 17.3 mph N/A   Clear
10:55 AM 71.6 °F 55.4 °F 57% 29.73 in 10.0 mi South 16.1 mph 27.6 mph N/A   Clear
11:15 AM 73.4 °F 55.4 °F 53% 29.73 in 10.0 mi SSW 13.8 mph 23.0 mph N/A   Clear
11:35 AM 73.4 °F 53.6 °F 50% 29.73 in 10.0 mi SSW 16.1 mph 20.7 mph N/A   Clear
11:55 AM 77.0 °F 53.6 °F 44% 29.73 in 10.0 mi South 19.6 mph 27.6 mph N/A   Clear
12:15 PM 77.0 °F 51.8 °F 41% 29.73 in 10.0 mi SW 16.1 mph 25.3 mph N/A   Clear
12:35 PM 77.0 °F 51.8 °F 41% 29.73 in 10.0 mi SSW 18.4 mph 23.0 mph N/A   Clear
12:55 PM 78.8 °F 51.8 °F 39% 29.73 in 10.0 mi SSW 12.7 mph 25.3 mph N/A   Clear
1:15 PM 78.8 °F 51.8 °F 39% 29.72 in 10.0 mi SSW 17.3 mph 27.6 mph N/A   Clear
1:35 PM 78.8 °F 50.0 °F 36% 29.72 in 10.0 mi SSW 12.7 mph 26.5 mph N/A   Clear
1:55 PM 82.4 °F 48.2 °F 30% 29.72 in 10.0 mi SSW 20.7 mph 27.6 mph N/A   Clear
2:15 PM 82.4 °F 50.0 °F 32% 29.72 in 10.0 mi South 17.3 mph 31.1 mph N/A   Clear
2:35 PM 82.4 °F 50.0 °F 32% 29.73 in 10.0 mi SSW 19.6 mph 26.5 mph N/A   Clear
2:55 PM 82.4 °F 46.4 °F 28% 29.72 in 10.0 mi SSW 16.1 mph 26.5 mph N/A   Clear
3:15 PM 84.2 °F 46.4 °F 27% 29.73 in 10.0 mi SSW 15.0 mph 28.8 mph N/A   Clear
3:35 PM 86.0 °F 42.8 °F 22% 29.73 in 10.0 mi SW 21.9 mph 28.8 mph N/A   Clear
3:55 PM 84.2 °F 41.0 °F 22% 29.73 in 10.0 mi SSW 23.0 mph 39.1 mph N/A   Clear
4:15 PM 86.0 °F 41.0 °F 20% 29.73 in 10.0 mi SSW 21.9 mph 32.2 mph N/A   Clear
4:35 PM 84.2 °F 41.0 °F 22% 29.73 in 10.0 mi SSW 20.7 mph 28.8 mph N/A   Clear
4:55 PM 84.2 °F 41.0 °F 22% 29.75 in 10.0 mi SSW 19.6 mph 31.1 mph N/A   Clear
5:15 PM 82.4 °F 41.0 °F 23% 29.75 in 10.0 mi SSW 18.4 mph 29.9 mph N/A   Clear
5:35 PM 84.2 °F 41.0 °F 22% 29.76 in 10.0 mi SSW 17.3 mph 26.5 mph N/A   Clear
5:55 PM 82.4 °F 42.8 °F 25% 29.76 in 10.0 mi SSW 17.3 mph 25.3 mph N/A   Clear
6:15 PM 82.4 °F 42.8 °F 25% 29.77 in 10.0 mi SSW 11.5 mph 24.2 mph N/A   Clear
6:35 PM 80.6 °F 44.6 °F 28% 29.78 in 10.0 mi SSW 9.2 mph - N/A   Clear
6:55 PM 80.6 °F 44.6 °F 28% 29.79 in 10.0 mi SSW 13.8 mph 21.9 mph N/A   Clear
7:15 PM 80.6 °F 44.6 °F 28% 29.80 in 10.0 mi South 11.5 mph 17.3 mph N/A   Clear
7:55 PM 78.8 °F 46.4 °F 32% 29.81 in 10.0 mi South 11.5 mph - N/A   Clear
8:15 PM 77.0 °F 46.4 °F 34% 29.83 in 10.0 mi South 10.4 mph 17.3 mph N/A   Clear
8:35 PM 77.0 °F 46.4 °F 34% 29.83 in 7.0 mi South 10.4 mph 16.1 mph N/A   Clear
8:55 PM 77.0 °F 44.6 °F 32% 29.84 in 10.0 mi South 8.1 mph - N/A   Clear
9:15 PM 73.4 °F 44.6 °F 36% 29.85 in 10.0 mi South 6.9 mph - N/A   Clear
9:35 PM 73.4 °F 46.4 °F 38% 29.85 in 10.0 mi South 9.2 mph - N/A   Clear
9:55 PM 73.4 °F 50.0 °F 44% 29.86 in 10.0 mi South 11.5 mph - N/A   Clear
10:15 PM 73.4 °F 50.0 °F 44% 29.86 in 10.0 mi South 13.8 mph 17.3 mph N/A   Clear
10:35 PM 73.4 °F 50.0 °F 44% 29.87 in 10.0 mi SSW 13.8 mph 19.6 mph N/A   Clear
10:55 PM 73.4 °F 50.0 °F 44% 29.88 in 10.0 mi South 11.5 mph 17.3 mph N/A   Clear
11:15 PM 71.6 °F 50.0 °F 46% 29.88 in 10.0 mi South 11.5 mph 19.6 mph N/A   Clear
11:35 PM 71.6 °F 50.0 °F 46% 29.89 in 10.0 mi SSW 13.8 mph 18.4 mph N/A   Clear